Погода Новотроицкое

Погода Новотроицкое : погода сейчас, прогноз погоды и архив. Всё, что Вы хотите узнать о погоде Новотроицкое!

Хотите узнать прогноз погоды Новотроицкое? Тогда Вам сюда: Погода Новотроицкое

Поиск расширенной информации на нашем сайте:

Другие новости

Новости СМИ2

Главная страница сайта

Новости сайта

03.07.2017

Напоминаем, что на нашем специализированном сайте Метеоцентр.Азия вы можете получить высокодетализированные автоматические прогнозы погоды по пунктам России, СНГ и мира в авиационном формате (включающие направление и скорость ветра, видимость, явления погоды, количество и форму облачности, нижнюю и верхнюю границу облачности).

Рекомендуем: Полог брезентовый 3х5м утепленный www.korona-len.ru.

Погода Новотроицкое - сегодня

Время (UTC), дата Ветер
(°,м/с) 
Видим.   Явления Облачность Т
(°С)
Тd
(°С)
f(%) Тe
(°С)
Pmin
(гПа)
dP
(гПа)
Po
(мм)
O2
(г/м3)
Тmin Tmax R s Состояние
почвы
00 17.08.17 230 (ЮЗ) 10 км    8/8 600 м 
[Sc]
+14.6 +11 79 +18  1011.8  0.3  719  273           
03 17.08.17 320 (СЗ) 20000 м    6/0 средняя 
[Ac cuf]
+16.8 +11.4 70 +22  1012.6  1.1  720  271      0.3     
06 17.08.17 320 (СЗ) 20000 м    3/0 средняя 
[Ac cast]
+25 +13.2 48 +32  1011.3  0.2  720  263  +14.5    0.3     
09 17.08.17 360 (С) 20000 м    5/0 средняя 
[Ac cast]
+27 +9.8 34 +29  1011.5  0.5  721  262           
12 17.08.17 360 (С) 20000 м    5/5 1000 м 
[Cu med, cong]
+27.1 +8.1 30 +27  1013  1.5  722  263           
15 17.08.17 360 (С) 10 км    3/3 1000 м 
[Cu med, cong]
+22 +9.7 46 +23  1015.5  1.5  723  268    +28.6       
18 17.08.17 360 (С) 10 км    ясно 
+16 +8.1 59 +17  1017.7  724  274    +28.6       
21 17.08.17 230 (ЮЗ) 10 км    ясно 
+12.1 +5.5 64 +13  1018.9  0.4  724  278           
00 18.08.17 тихо ()   10 км    ясно 
+10.5 +5 69 +11  1018.9  -0.3  724  280           
03 18.08.17 тихо ()   20000 м    ясно 
+17.8 +9.7 59 +19  1018.1  0.6  724  272           
06 18.08.17 020 (С) 20000 м    ясно 
+25.3 +5.6 28 +25  1015.6  -1.1  723  266  +10.4         
09 18.08.17 020 (С) 20000 м    ясно 
+27.2 +4.6 24 +27  1014.3  -1  723  264           
12 18.08.17 020 (С) 20000 м    ясно 
+27.7 +4.6 23 +28  1013.4  -0.8  722  263           
15 18.08.17 360 (С) 10 км    ясно 
+20.9 +1.9 28 +21  1014.8  0.2  722  270    +29       
18 18.08.17 тихо ()   10 км    ясно 
+16.6 +2.5 39 +17  1015.1  -0.4  722  274    +29       
21 18.08.17 тихо ()   10 км    ясно 
+15.5 +3.2 44 +16  1013.6  -1.6  721  274           
00 19.08.17 тихо ()   10 км    ясно 
+10.4 +3.2 61 +10  1015.2  0.5  721  279           
03 19.08.17 050 (СВ) 20000 м    10/0 верхняя 
[Cc]
+16.5 +8.8 60 +18  1015.3  1.3  722  273           
06 19.08.17 050 (СВ) 20000 м    8/0 верхняя 
[Cc]
+27 +8.2 30 +27  1012.9  -0.5  722  263  +10.3         
09 19.08.17 320 (СЗ) 20000 м    6/0 верхняя 
[Cc]
+28.6 +3.8 20 +29  1011.9  -0.7  721  262           
12 19.08.17 050 (СВ) 20000 м    5/0 средняя 
[Ac cuf]
+28.5 +2.9 19 +29  1012.3  0.3  721  263           
15 19.08.17 020 (С) 10 км    3/0 средняя 
[Ac cuf]
+21.5 +5.5 35 +22  1014.9  1.4  722  269    +30.1       
18 19.08.17 050 (СВ) 10 км    ясно 
+20.7 +6.5 40 +21  1016  0.8  723  270    +30.1       
21 19.08.17 050 (СВ) 10 км    ясно 
+18.9 +6.2 43 +20  1014.8  -1.4  722  271           
00 20.08.17 050 (СВ) 10 км    4/0 средняя 
[Ac trans]
+20.2 +6.2 40 +20  1015  0.4  722  270           
Время (UTC), дата Ветер
(°,м/с) 
Видим.   Явления Облачность Т
(°С)
Тd
(°С)
f(%) Тe
(°С)
Pmin
(гПа)
dP
(гПа)
Po
(мм)
O2
(г/м3)
Тmin Tmax R s Состояние
почвы

Для получения пояснительной информации подведите курсор к названию столбца.

ПОГОДА Новотроицкое - архив

Всё, что Вы хотите узнать о погоде Новотроицкое - удобно и подробно!

Выберите нужную дату (начиная с 1 января 2015* года) и нажмите кнопку "Найти".
Будут отображены архивные сводки погоды по пункту Новотроицкое, начиная с указанной даты.


Отображать данные в формате CSV (для использования в таблицах Excel)


Внимание! Наш архив погоды предназначен исключительно для личного некоммерческого использования в познавательных целях. Если Вам необходимы официальные справки о состоянии погоды (для производственных, юридических, коммерческих и т.п. целей), обращайтесь в органы Росгидромета.

*Примечание: данная дата относится к архиву по метеостанциям СССР (Россия, СНГ, Балтия).
Архив по метеостанциям Зарубежной Европы и Азии (кроме Китая) хранится 10 дней, по другим регионам земного шара (Китай, Африка, Америка, Австралия, Океания) - 1 день.

Новотроицкое - район местоположения метеостанции


Название, широта, долгота, высота метеостанции:
Новотроицкое 43.7°ш. 73.8°д. 456 м над ур. моря [Казахстан]

Дополнительная информация

В oтличие oт бoльшинства пoгoдных сайтoв мы публикуем пoдрoбную метеoинфoрмацию в детальнoм прoфессиoнальнoм фoрмате.

Характеристики температуры и влажнoсти вoздуха измеряются на высoте 2 м в тени вдали oт зданий и деревьев.
Скoрoсть ветра измеряется на высoте 10 м (на урoвне рoста челoвека скoрoсть ветра ниже в 1.5-2 раза). Если метеoстанция нахoдится в гoрoде или в лесу, тo скoрoсть ветра занижена на 2-4 м/с пo сравнению с oткрытым местoм. Скoрoсть ветра над акватoриями крупных рек и oзёр, а также на вершинах хoлмoв на 2-5 м/с выше, чем в oбычных услoвиях.
Атмoсфернoе давление в разных тoчках местнoсти мoжет значительнo oтличаться oт давления на метеoстанции, в зависимoсти oт услoвий рельефа (при пoдъёме на 10 м давление пoнижается примернo на 1 мм рт.ст.).